Time,TemperatureF,DewpointF,PressureIn,WindDirection,WindDirectionDegrees,WindSpeedMPH,WindSpeedGustMPH,Humidity,HourlyPrecipIn,Conditions,Clouds,dailyrainin,SoftwareType,DateUTC
2013-04-11 00:00:00,49.8,43.9,29.63,ENE,67,0.0,0.0,80,0.00,,,0.00,WUHU21623XXSP,2013-04-11 04:00:00,
2013-04-11 00:05:00,49.6,44.0,29.63,ENE,67,0.0,0.7,81,0.00,,,0.00,WUHU21623XXSP,2013-04-11 04:05:00,
2013-04-11 00:10:00,49.6,44.0,29.63,ENE,67,0.0,0.7,81,0.00,,,0.00,WUHU21623XXSP,2013-04-11 04:10:00,
2013-04-11 00:15:00,49.3,43.6,29.63,ENE,67,0.0,0.0,81,0.00,,,0.00,WUHU21623XXSP,2013-04-11 04:15:00,
2013-04-11 00:20:00,49.3,43.6,29.64,ENE,67,0.2,0.2,81,0.00,,,0.00,WUHU21623XXSP,2013-04-11 04:20:00,
2013-04-11 00:25:00,49.3,43.8,29.63,ENE,67,0.0,0.2,81,0.00,,,0.00,WUHU21623XXSP,2013-04-11 04:25:00,
2013-04-11 00:30:00,49.3,43.6,29.64,ENE,67,0.0,0.0,81,0.00,,,0.00,WUHU21623XXSP,2013-04-11 04:30:00,
2013-04-11 00:35:00,49.3,43.6,29.64,ENE,67,0.0,0.0,81,0.00,,,0.00,WUHU21623XXSP,2013-04-11 04:35:00,
2013-04-11 00:40:00,49.3,43.6,29.65,ENE,67,0.0,0.0,81,0.00,,,0.00,WUHU21623XXSP,2013-04-11 04:40:00,
2013-04-11 00:45:00,49.3,43.6,29.65,ENE,67,0.0,0.0,81,0.00,,,0.00,WUHU21623XXSP,2013-04-11 04:45:00,
2013-04-11 00:50:00,49.1,43.5,29.64,ENE,67,0.0,0.0,81,0.00,,,0.00,WUHU21623XXSP,2013-04-11 04:50:00,
2013-04-11 00:55:00,49.1,43.5,29.64,ENE,67,0.0,0.0,81,0.00,,,0.00,WUHU21623XXSP,2013-04-11 04:55:00,
2013-04-11 01:00:00,49.1,43.5,29.64,ENE,67,0.0,0.0,81,0.00,,,0.00,WUHU21623XXSP,2013-04-11 05:00:00,
2013-04-11 01:05:00,48.9,43.3,29.64,ENE,67,0.0,0.0,81,0.00,,,0.00,WUHU21623XXSP,2013-04-11 05:05:00,
2013-04-11 01:10:00,48.9,43.3,29.64,ENE,67,0.0,0.0,81,0.00,,,0.00,WUHU21623XXSP,2013-04-11 05:10:00,
2013-04-11 01:15:00,48.9,43.3,29.64,ENE,67,0.0,0.0,81,0.00,,,0.00,WUHU21623XXSP,2013-04-11 05:15:00,
2013-04-11 01:20:00,48.9,43.3,29.64,ENE,67,0.0,0.0,81,0.00,,,0.00,WUHU21623XXSP,2013-04-11 05:20:00,
2013-04-11 01:25:00,48.9,43.3,29.63,ENE,67,0.0,0.0,81,0.00,,,0.00,WUHU21623XXSP,2013-04-11 05:25:00,
2013-04-11 01:30:00,48.7,43.1,29.63,ENE,67,0.0,0.0,81,0.00,,,0.00,WUHU21623XXSP,2013-04-11 05:30:00,
2013-04-11 01:35:00,48.7,43.1,29.63,ENE,67,0.0,0.0,81,0.00,,,0.00,WUHU21623XXSP,2013-04-11 05:35:00,
2013-04-11 01:40:00,48.7,43.1,29.63,ENE,67,0.0,0.0,81,0.00,,,0.00,WUHU21623XXSP,2013-04-11 05:40:00,
2013-04-11 01:45:00,48.7,43.1,29.63,ENE,67,0.0,0.0,81,0.00,,,0.00,WUHU21623XXSP,2013-04-11 05:45:00,
2013-04-11 01:50:00,48.7,43.1,29.63,ENE,67,0.0,0.0,81,0.00,,,0.00,WUHU21623XXSP,2013-04-11 05:50:00,
2013-04-11 01:55:00,48.6,42.9,29.63,ENE,67,0.0,0.0,81,0.00,,,0.00,WUHU21623XXSP,2013-04-11 05:55:00,
2013-04-11 02:00:00,48.6,42.9,29.62,ENE,67,0.0,0.0,81,0.00,,,0.00,WUHU21623XXSP,2013-04-11 06:00:00,
2013-04-11 02:05:00,48.6,42.9,29.62,ENE,67,0.0,0.0,81,0.00,,,0.00,WUHU21623XXSP,2013-04-11 06:05:00,
2013-04-11 02:10:00,48.6,42.9,29.61,ENE,67,0.0,0.0,81,0.00,,,0.00,WUHU21623XXSP,2013-04-11 06:10:00,
2013-04-11 02:15:00,48.4,42.7,29.61,ENE,67,0.0,0.0,81,0.00,,,0.00,WUHU21623XXSP,2013-04-11 06:15:00,
2013-04-11 02:20:00,48.4,42.7,29.61,ENE,67,0.0,0.0,81,0.00,,,0.00,WUHU21623XXSP,2013-04-11 06:20:00,
2013-04-11 02:25:00,48.4,42.7,29.60,ENE,67,0.0,0.0,81,0.00,,,0.00,WUHU21623XXSP,2013-04-11 06:25:00,
2013-04-11 02:30:00,48.4,42.7,29.60,ENE,67,0.0,0.0,81,0.00,,,0.00,WUHU21623XXSP,2013-04-11 06:30:00,
2013-04-11 02:35:00,48.4,42.7,29.60,ENE,67,0.0,0.0,81,0.00,,,0.00,WUHU21623XXSP,2013-04-11 06:35:00,
2013-04-11 02:40:00,48.4,42.7,29.60,ENE,67,0.0,0.0,81,0.00,,,0.00,WUHU21623XXSP,2013-04-11 06:40:00,
2013-04-11 02:45:00,48.4,42.7,29.60,ENE,67,0.0,0.0,81,0.00,,,0.00,WUHU21623XXSP,2013-04-11 06:45:00,
2013-04-11 02:50:00,48.4,42.7,29.60,ENE,67,0.0,0.0,81,0.00,,,0.00,WUHU21623XXSP,2013-04-11 06:50:00,
2013-04-11 02:55:00,48.4,42.7,29.61,ENE,67,0.0,0.0,81,0.00,,,0.00,WUHU21623XXSP,2013-04-11 06:55:00,
2013-04-11 03:00:00,48.4,42.7,29.61,ENE,67,0.0,0.0,81,0.00,,,0.00,WUHU21623XXSP,2013-04-11 07:00:00,
2013-04-11 03:05:00,48.6,42.9,29.61,ENE,67,0.0,0.0,81,0.00,,,0.00,WUHU21623XXSP,2013-04-11 07:05:00,
2013-04-11 03:10:00,48.4,42.7,29.61,ENE,67,0.0,0.0,81,0.00,,,0.00,WUHU21623XXSP,2013-04-11 07:10:00,
2013-04-11 03:15:00,48.4,43.1,29.61,ENE,67,0.0,0.0,82,0.00,,,0.00,WUHU21623XXSP,2013-04-11 07:15:00,
2013-04-11 03:20:00,48.4,43.1,29.61,ENE,67,0.0,0.0,82,0.00,,,0.00,WUHU21623XXSP,2013-04-11 07:20:00,
2013-04-11 03:25:00,48.4,43.1,29.61,ENE,67,0.0,0.0,82,0.00,,,0.00,WUHU21623XXSP,2013-04-11 07:25:00,
2013-04-11 03:30:00,48.4,43.1,29.61,ENE,67,0.0,0.0,82,0.00,,,0.00,WUHU21623XXSP,2013-04-11 07:30:00,
2013-04-11 03:35:00,48.4,43.1,29.61,ENE,67,0.0,0.0,82,0.00,,,0.00,WUHU21623XXSP,2013-04-11 07:35:00,
2013-04-11 03:40:00,48.4,43.1,29.61,ENE,67,0.0,0.0,82,0.00,,,0.00,WUHU21623XXSP,2013-04-11 07:40:00,
2013-04-11 03:45:00,48.4,43.1,29.61,ENE,67,0.0,0.0,82,0.00,,,0.00,WUHU21623XXSP,2013-04-11 07:45:00,
2013-04-11 03:50:00,48.4,43.1,29.61,ENE,67,0.0,0.0,82,0.00,,,0.00,WUHU21623XXSP,2013-04-11 07:50:00,
2013-04-11 03:55:00,48.4,43.1,29.61,ENE,67,0.0,0.0,82,0.00,,,0.00,WUHU21623XXSP,2013-04-11 07:55:00,
2013-04-11 04:00:00,48.4,43.4,29.61,ENE,67,0.0,0.0,83,0.00,,,0.00,WUHU21623XXSP,2013-04-11 08:00:00,
2013-04-11 04:05:00,48.4,43.4,29.61,ENE,67,0.0,0.0,83,0.00,,,0.00,WUHU21623XXSP,2013-04-11 08:05:00,
2013-04-11 04:10:00,48.4,43.4,29.61,NNE,22,0.0,0.0,83,0.00,,,0.00,WUHU21623XXSP,2013-04-11 08:10:00,
2013-04-11 04:15:00,48.2,43.6,29.62,SSW,202,0.0,0.0,84,0.00,,,0.00,WUHU21623XXSP,2013-04-11 08:15:00,
2013-04-11 04:20:00,48.0,43.4,29.62,SSW,202,0.0,0.0,84,0.00,,,0.00,WUHU21623XXSP,2013-04-11 08:20:00,
2013-04-11 04:25:00,48.0,43.4,29.62,SSW,202,0.0,0.0,84,0.00,,,0.00,WUHU21623XXSP,2013-04-11 08:25:00,
2013-04-11 04:30:00,48.0,43.4,29.62,ESE,112,0.0,0.0,84,0.00,,,0.00,WUHU21623XXSP,2013-04-11 08:30:00,
2013-04-11 04:35:00,48.0,43.4,29.61,ENE,67,0.0,0.0,84,0.00,,,0.00,WUHU21623XXSP,2013-04-11 08:35:00,
2013-04-11 04:40:00,48.0,43.4,29.61,NE,45,0.0,0.0,84,0.00,,,0.00,WUHU21623XXSP,2013-04-11 08:40:00,
2013-04-11 04:45:00,48.0,43.4,29.61,NE,45,0.0,0.0,84,0.00,,,0.00,WUHU21623XXSP,2013-04-11 08:45:00,
2013-04-11 04:50:00,48.0,43.4,29.61,NE,45,0.0,0.0,84,0.00,,,0.00,WUHU21623XXSP,2013-04-11 08:50:00,
2013-04-11 04:55:00,48.0,43.4,29.61,NE,45,0.0,0.0,84,0.00,,,0.00,WUHU21623XXSP,2013-04-11 08:55:00,
2013-04-11 05:00:00,47.8,43.2,29.62,NE,45,0.0,0.0,84,0.00,,,0.00,WUHU21623XXSP,2013-04-11 09:00:00,
2013-04-11 05:05:00,47.8,43.2,29.62,NE,45,0.0,0.0,84,0.00,,,0.00,WUHU21623XXSP,2013-04-11 09:05:00,
2013-04-11 05:10:00,47.8,43.2,29.62,NE,45,0.9,0.9,84,0.00,,,0.00,WUHU21623XXSP,2013-04-11 09:10:00,
2013-04-11 05:15:00,47.5,43.0,29.63,NNE,22,0.0,0.9,84,0.00,,,0.00,WUHU21623XXSP,2013-04-11 09:15:00,
2013-04-11 05:20:00,47.5,42.9,29.63,NNE,22,0.0,0.9,84,0.00,,,0.00,WUHU21623XXSP,2013-04-11 09:20:00,
2013-04-11 05:25:00,47.5,42.9,29.64,NNE,22,0.0,0.0,84,0.00,,,0.00,WUHU21623XXSP,2013-04-11 09:25:00,
2013-04-11 05:30:00,47.5,42.9,29.64,North,0,0.0,0.0,84,0.00,,,0.00,WUHU21623XXSP,2013-04-11 09:30:00,
2013-04-11 05:35:00,47.3,42.7,29.65,North,0,0.0,0.0,84,0.00,,,0.00,WUHU21623XXSP,2013-04-11 09:35:00,
2013-04-11 05:40:00,47.3,42.7,29.65,North,0,0.0,0.0,84,0.00,,,0.00,WUHU21623XXSP,2013-04-11 09:40:00,
2013-04-11 05:45:00,47.3,42.5,29.65,NNW,337,0.0,0.0,84,0.00,,,0.00,WUHU21623XXSP,2013-04-11 09:45:00,
2013-04-11 05:50:00,47.1,42.5,29.64,NNE,22,0.0,0.0,84,0.00,,,0.00,WUHU21623XXSP,2013-04-11 09:50:00,
2013-04-11 05:55:00,47.1,42.2,29.65,NNE,22,0.0,0.0,83,0.00,,,0.00,WUHU21623XXSP,2013-04-11 09:55:00,
2013-04-11 06:00:00,47.1,42.2,29.66,NNE,22,0.0,0.0,83,0.00,,,0.00,WUHU21623XXSP,2013-04-11 10:00:00,
2013-04-11 06:05:00,47.1,42.2,29.66,NNE,22,0.0,0.0,83,0.00,,,0.00,WUHU21623XXSP,2013-04-11 10:05:00,
2013-04-11 06:10:00,46.9,42.0,29.66,NNE,22,0.0,0.0,83,0.00,,,0.00,WUHU21623XXSP,2013-04-11 10:10:00,
2013-04-11 06:15:00,46.9,42.0,29.69,North,0,0.0,0.0,83,0.00,,,0.00,WUHU21623XXSP,2013-04-11 10:15:00,
2013-04-11 06:20:00,46.8,41.9,29.68,North,0,0.0,0.0,83,0.00,,,0.00,WUHU21623XXSP,2013-04-11 10:20:00,
2013-04-11 06:25:00,46.8,41.9,29.68,North,0,0.0,0.0,83,0.00,,,0.00,WUHU21623XXSP,2013-04-11 10:25:00,
2013-04-11 06:30:00,46.6,41.7,29.69,North,0,0.0,0.0,83,0.00,,,0.00,WUHU21623XXSP,2013-04-11 10:30:00,
2013-04-11 06:35:00,46.6,41.9,29.69,North,0,0.0,0.0,83,0.00,,,0.00,WUHU21623XXSP,2013-04-11 10:35:00,
2013-04-11 06:40:00,46.6,41.7,29.69,NNW,337,0.0,0.0,83,0.00,,,0.00,WUHU21623XXSP,2013-04-11 10:40:00,
2013-04-11 06:45:00,46.8,41.9,29.70,NNW,337,0.0,0.0,83,0.00,,,0.00,WUHU21623XXSP,2013-04-11 10:45:00,
2013-04-11 06:50:00,46.8,41.9,29.70,NNW,337,0.0,0.0,83,0.00,,,0.00,WUHU21623XXSP,2013-04-11 10:50:00,
2013-04-11 06:55:00,46.8,41.9,29.70,NNW,337,0.0,0.7,83,0.00,,,0.00,WUHU21623XXSP,2013-04-11 10:55:00,
2013-04-11 07:00:00,46.8,41.9,29.71,NNW,337,0.0,0.7,83,0.00,,,0.00,WUHU21623XXSP,2013-04-11 11:00:00,
2013-04-11 07:05:00,46.9,42.0,29.70,West,270,0.0,0.0,83,0.00,,,0.00,WUHU21623XXSP,2013-04-11 11:05:00,
2013-04-11 07:10:00,46.9,42.0,29.70,West,270,0.0,0.0,83,0.00,,,0.00,WUHU21623XXSP,2013-04-11 11:10:00,
2013-04-11 07:15:00,46.9,41.7,29.71,West,270,0.0,0.0,82,0.00,,,0.00,WUHU21623XXSP,2013-04-11 11:15:00,
2013-04-11 07:20:00,47.1,41.9,29.71,West,270,0.0,0.0,82,0.00,,,0.00,WUHU21623XXSP,2013-04-11 11:20:00,
2013-04-11 07:25:00,46.9,41.7,29.71,West,270,0.0,0.0,82,0.00,,,0.00,WUHU21623XXSP,2013-04-11 11:25:00,
2013-04-11 07:30:00,47.1,41.9,29.71,North,0,0.0,0.0,82,0.00,,,0.00,WUHU21623XXSP,2013-04-11 11:30:00,
2013-04-11 07:35:00,47.1,41.9,29.71,North,0,0.0,0.0,82,0.00,,,0.00,WUHU21623XXSP,2013-04-11 11:35:00,
2013-04-11 07:40:00,47.5,42.2,29.72,North,0,0.0,0.0,82,0.00,,,0.00,WUHU21623XXSP,2013-04-11 11:40:00,
2013-04-11 07:45:00,47.5,42.2,29.72,North,0,0.0,0.0,82,0.00,,,0.00,WUHU21623XXSP,2013-04-11 11:45:00,
2013-04-11 07:50:00,47.7,42.1,29.72,NE,45,0.0,0.0,81,0.00,,,0.00,WUHU21623XXSP,2013-04-11 11:50:00,
2013-04-11 07:55:00,47.7,42.1,29.72,NNE,22,0.0,0.0,81,0.00,,,0.00,WUHU21623XXSP,2013-04-11 11:55:00,
2013-04-11 08:00:00,47.7,41.8,29.72,NNE,22,0.0,0.0,80,0.00,,,0.00,WUHU21623XXSP,2013-04-11 12:00:00,
2013-04-11 08:05:00,47.8,42.2,29.72,NNE,22,0.0,0.0,81,0.00,,,0.00,WUHU21623XXSP,2013-04-11 12:05:00,
2013-04-11 08:10:00,47.8,41.9,29.72,NNE,22,0.0,0.0,80,0.00,,,0.00,WUHU21623XXSP,2013-04-11 12:10:00,
2013-04-11 08:15:00,48.0,42.1,29.71,NNE,22,0.0,0.0,80,0.00,,,0.00,WUHU21623XXSP,2013-04-11 12:15:00,
2013-04-11 08:20:00,48.2,42.3,29.71,North,0,0.0,0.0,80,0.00,,,0.00,WUHU21623XXSP,2013-04-11 12:20:00,
2013-04-11 08:25:00,48.4,42.1,29.71,NE,45,1.8,1.8,79,0.00,,,0.00,WUHU21623XXSP,2013-04-11 12:25:00,
2013-04-11 08:30:00,48.4,41.8,29.70,NE,45,0.0,1.8,78,0.00,,,0.00,WUHU21623XXSP,2013-04-11 12:30:00,
2013-04-11 08:35:00,48.4,41.4,29.70,NE,45,0.0,0.0,77,0.00,,,0.00,WUHU21623XXSP,2013-04-11 12:35:00,
2013-04-11 08:40:00,48.6,41.6,29.70,NNE,22,0.0,0.0,77,0.00,,,0.00,WUHU21623XXSP,2013-04-11 12:40:00,
2013-04-11 08:45:00,48.7,41.8,29.71,NE,45,0.0,0.0,77,0.00,,,0.00,WUHU21623XXSP,2013-04-11 12:45:00,
2013-04-11 08:50:00,48.7,41.8,29.71,NE,45,0.0,0.0,76,0.00,,,0.00,WUHU21623XXSP,2013-04-11 12:50:00,
2013-04-11 08:55:00,48.7,41.4,29.74,NE,45,0.0,1.8,76,0.00,,,0.00,WUHU21623XXSP,2013-04-11 12:55:00,
2013-04-11 09:00:00,48.6,40.9,29.74,NE,45,0.0,1.8,75,0.00,,,0.00,WUHU21623XXSP,2013-04-11 13:00:00,
2013-04-11 09:05:00,48.6,40.9,29.74,NE,45,0.0,0.0,75,0.00,,,0.00,WUHU21623XXSP,2013-04-11 13:05:00,
2013-04-11 09:10:00,48.6,40.9,29.75,NE,45,0.0,0.0,75,0.00,,,0.00,WUHU21623XXSP,2013-04-11 13:10:00,
2013-04-11 09:15:00,48.7,40.7,29.75,NE,45,0.0,0.0,74,0.00,,,0.00,WUHU21623XXSP,2013-04-11 13:15:00,
2013-04-11 09:20:00,48.6,40.6,29.75,NE,45,0.0,0.0,74,0.00,,,0.00,WUHU21623XXSP,2013-04-11 13:20:00,
2013-04-11 09:25:00,48.7,40.7,29.75,NE,45,0.0,0.0,74,0.00,,,0.00,WUHU21623XXSP,2013-04-11 13:25:00,
2013-04-11 09:30:00,48.7,40.4,29.74,NNE,22,2.5,2.5,73,0.00,,,0.00,WUHU21623XXSP,2013-04-11 13:30:00,
2013-04-11 09:35:00,48.7,40.4,29.74,NE,45,0.0,2.5,73,0.00,,,0.00,WUHU21623XXSP,2013-04-11 13:35:00,
2013-04-11 09:40:00,48.6,39.9,29.75,NE,45,0.0,0.0,72,0.00,,,0.00,WUHU21623XXSP,2013-04-11 13:40:00,
2013-04-11 09:45:00,48.7,40.1,29.75,NE,45,0.0,0.0,72,0.00,,,0.00,WUHU21623XXSP,2013-04-11 13:45:00,
2013-04-11 09:50:00,48.7,40.1,29.75,NE,45,0.0,0.0,72,0.00,,,0.00,WUHU21623XXSP,2013-04-11 13:50:00,
2013-04-11 09:55:00,48.7,40.1,29.75,NE,45,0.0,0.0,72,0.00,,,0.00,WUHU21623XXSP,2013-04-11 13:55:00,
2013-04-11 10:00:00,48.9,39.9,29.75,NNE,22,0.0,0.0,71,0.00,,,0.00,WUHU21623XXSP,2013-04-11 14:00:00,
2013-04-11 10:05:00,49.1,40.1,29.76,NNE,22,0.0,0.0,71,0.00,,,0.00,WUHU21623XXSP,2013-04-11 14:05:00,
2013-04-11 10:10:00,49.6,40.3,29.75,NNE,22,0.0,0.0,70,0.00,,,0.00,WUHU21623XXSP,2013-04-11 14:10:00,
2013-04-11 10:15:00,49.6,39.9,29.76,NE,45,0.0,2.2,69,0.00,,,0.00,WUHU21623XXSP,2013-04-11 14:15:00,
2013-04-11 10:20:00,49.6,39.9,29.75,NNE,22,2.2,2.2,69,0.00,,,0.00,WUHU21623XXSP,2013-04-11 14:20:00,
2013-04-11 10:25:00,49.6,39.5,29.76,ENE,67,0.0,2.2,68,0.00,,,0.00,WUHU21623XXSP,2013-04-11 14:25:00,
2013-04-11 10:30:00,49.8,39.7,29.75,ENE,67,0.7,1.6,68,0.00,,,0.00,WUHU21623XXSP,2013-04-11 14:30:00,
2013-04-11 10:35:00,50.2,40.0,29.76,NE,45,0.0,1.3,68,0.00,,,0.00,WUHU21623XXSP,2013-04-11 14:35:00,
2013-04-11 10:40:00,50.4,39.8,29.76,NE,45,0.0,5.8,67,0.00,,,0.00,WUHU21623XXSP,2013-04-11 14:40:00,
2013-04-11 10:45:00,50.7,40.1,29.76,NE,45,0.0,5.8,67,0.00,,,0.00,WUHU21623XXSP,2013-04-11 14:45:00,
2013-04-11 10:50:00,51.1,39.9,29.76,NE,45,1.6,1.6,66,0.00,,,0.00,WUHU21623XXSP,2013-04-11 14:50:00,
2013-04-11 10:55:00,51.4,40.0,29.77,NE,45,0.0,1.6,65,0.00,,,0.00,WUHU21623XXSP,2013-04-11 14:55:00,
2013-04-11 11:00:00,51.1,39.7,29.77,NE,45,0.0,0.0,65,0.00,,,0.00,WUHU21623XXSP,2013-04-11 15:00:00,
2013-04-11 11:05:00,51.1,39.7,29.77,NE,45,3.8,3.8,65,0.00,,,0.00,WUHU21623XXSP,2013-04-11 15:05:00,
2013-04-11 11:10:00,51.1,39.7,29.77,NNE,22,0.0,3.8,65,0.00,,,0.00,WUHU21623XXSP,2013-04-11 15:10:00,
2013-04-11 11:15:00,51.3,39.7,29.78,NE,45,0.0,0.0,65,0.00,,,0.00,WUHU21623XXSP,2013-04-11 15:15:00,
2013-04-11 11:20:00,51.4,40.0,29.79,NNE,22,0.9,0.9,65,0.00,,,0.00,WUHU21623XXSP,2013-04-11 15:20:00,
2013-04-11 11:25:00,51.8,40.2,29.78,NNE,22,0.0,0.9,65,0.00,,,0.00,WUHU21623XXSP,2013-04-11 15:25:00,
2013-04-11 11:30:00,52.3,40.5,29.78,NNE,22,0.0,0.0,64,0.00,,,0.00,WUHU21623XXSP,2013-04-11 15:30:00,
2013-04-11 11:35:00,52.7,40.2,29.79,SW,225,0.0,0.0,63,0.00,,,0.00,WUHU21623XXSP,2013-04-11 15:35:00,
2013-04-11 11:40:00,53.2,40.6,29.79,SW,225,0.0,0.0,63,0.00,,,0.00,WUHU21623XXSP,2013-04-11 15:40:00,
2013-04-11 11:45:00,53.6,40.5,29.78,NE,45,2.9,2.9,61,0.00,,,0.00,WUHU21623XXSP,2013-04-11 15:45:00,
2013-04-11 11:50:00,53.8,40.3,29.78,NE,45,0.0,2.9,60,0.00,,,0.00,WUHU21623XXSP,2013-04-11 15:50:00,
2013-04-11 11:55:00,54.3,40.7,29.78,NNE,22,0.0,2.9,60,0.00,,,0.00,WUHU21623XXSP,2013-04-11 15:55:00,
2013-04-11 12:00:00,55.2,41.1,29.78,North,0,1.3,2.5,59,0.00,,,0.00,WUHU21623XXSP,2013-04-11 16:00:00,
2013-04-11 12:05:00,55.2,40.6,29.78,NNW,337,0.0,2.5,58,0.00,,,0.00,WUHU21623XXSP,2013-04-11 16:05:00,
2013-04-11 12:10:00,55.4,41.3,29.78,West,270,5.4,5.4,59,0.00,,,0.00,WUHU21623XXSP,2013-04-11 16:10:00,
2013-04-11 12:15:00,55.4,40.8,29.78,WNW,292,4.0,5.4,58,0.00,,,0.00,WUHU21623XXSP,2013-04-11 16:15:00,
2013-04-11 12:20:00,55.4,40.8,29.77,North,0,0.0,4.0,58,0.00,,,0.00,WUHU21623XXSP,2013-04-11 16:20:00,
2013-04-11 12:25:00,55.6,40.3,29.77,North,0,2.2,2.2,57,0.00,,,0.00,WUHU21623XXSP,2013-04-11 16:25:00,
2013-04-11 12:30:00,55.9,40.9,29.77,NE,45,0.0,2.2,57,0.00,,,0.00,WUHU21623XXSP,2013-04-11 16:30:00,
2013-04-11 12:35:00,56.5,41.4,29.77,North,0,6.7,6.7,56,0.00,,,0.00,WUHU21623XXSP,2013-04-11 16:35:00,
2013-04-11 12:40:00,56.5,40.9,29.77,NE,45,0.0,6.7,56,0.00,,,0.00,WUHU21623XXSP,2013-04-11 16:40:00,
2013-04-11 12:45:00,56.5,41.9,29.77,NE,45,4.0,4.0,58,0.00,,,0.00,WUHU21623XXSP,2013-04-11 16:45:00,
2013-04-11 12:50:00,56.3,42.2,29.77,NE,45,0.0,4.0,59,0.00,,,0.00,WUHU21623XXSP,2013-04-11 16:50:00,
2013-04-11 12:55:00,56.1,42.4,29.77,NE,45,4.7,4.7,60,0.00,,,0.00,WUHU21623XXSP,2013-04-11 16:55:00,
2013-04-11 13:00:00,55.2,41.6,29.79,NNE,22,0.0,4.7,60,0.00,,,0.00,WUHU21623XXSP,2013-04-11 17:00:00,
2013-04-11 13:05:00,54.7,41.5,29.79,NE,45,0.0,4.7,61,0.00,,,0.00,WUHU21623XXSP,2013-04-11 17:05:00,
2013-04-11 13:10:00,54.5,41.3,29.79,NNE,22,4.0,4.0,61,0.00,,,0.00,WUHU21623XXSP,2013-04-11 17:10:00,
2013-04-11 13:15:00,54.5,41.3,29.79,ENE,67,2.5,4.0,61,0.00,,,0.00,WUHU21623XXSP,2013-04-11 17:15:00,
2013-04-11 13:20:00,55.0,41.8,29.79,NE,45,0.4,4.9,61,0.00,,,0.00,WUHU21623XXSP,2013-04-11 17:20:00,
2013-04-11 13:25:00,55.9,42.7,29.78,NNE,22,6.0,6.0,61,0.00,,,0.00,WUHU21623XXSP,2013-04-11 17:25:00,
2013-04-11 13:30:00,56.3,42.2,29.79,NNE,22,0.0,6.0,59,0.00,,,0.00,WUHU21623XXSP,2013-04-11 17:30:00,
2013-04-11 13:35:00,55.9,41.8,29.79,NE,45,0.0,1.8,59,0.00,,,0.00,WUHU21623XXSP,2013-04-11 17:35:00,
2013-04-11 13:40:00,55.2,40.6,29.79,East,90,2.5,2.5,58,0.00,,,0.00,WUHU21623XXSP,2013-04-11 17:40:00,
2013-04-11 13:45:00,55.2,41.6,29.78,ENE,67,0.0,2.5,60,0.00,,,0.00,WUHU21623XXSP,2013-04-11 17:45:00,
2013-04-11 13:50:00,55.9,41.8,29.77,NE,45,0.0,0.0,59,0.00,,,0.00,WUHU21623XXSP,2013-04-11 17:50:00,
2013-04-11 13:55:00,56.8,41.8,29.78,NNE,22,2.2,2.2,57,0.00,,,0.00,WUHU21623XXSP,2013-04-11 17:55:00,
2013-04-11 14:00:00,56.8,41.8,29.78,NNE,22,0.0,2.7,57,0.00,,,0.00,WUHU21623XXSP,2013-04-11 18:00:00,
2013-04-11 14:05:00,57.4,41.8,29.78,ENE,67,0.0,4.5,56,0.00,,,0.00,WUHU21623XXSP,2013-04-11 18:05:00,
2013-04-11 14:10:00,57.6,42.0,29.77,NE,45,3.8,4.5,56,0.00,,,0.00,WUHU21623XXSP,2013-04-11 18:10:00,
2013-04-11 14:15:00,57.9,41.8,29.78,NNE,22,0.0,3.8,55,0.00,,,0.00,WUHU21623XXSP,2013-04-11 18:15:00,
2013-04-11 14:20:00,58.3,41.7,29.77,SE,135,1.6,1.6,54,0.00,,,0.00,WUHU21623XXSP,2013-04-11 18:20:00,
2013-04-11 14:25:00,59.4,40.8,29.77,NNW,337,6.0,6.0,50,0.00,,,0.00,WUHU21623XXSP,2013-04-11 18:25:00,
2013-04-11 14:30:00,59.5,39.8,29.78,NW,315,0.7,6.0,48,0.00,,,0.00,WUHU21623XXSP,2013-04-11 18:30:00,
2013-04-11 14:35:00,59.5,39.2,29.78,South,180,0.0,4.0,47,0.00,,,0.00,WUHU21623XXSP,2013-04-11 18:35:00,
2013-04-11 14:40:00,59.5,39.2,29.77,WNW,292,4.3,5.4,47,0.00,,,0.00,WUHU21623XXSP,2013-04-11 18:40:00,
2013-04-11 14:45:00,59.5,38.1,29.77,NW,315,0.7,5.4,45,0.00,,,0.00,WUHU21623XXSP,2013-04-11 18:45:00,
2013-04-11 14:50:00,58.8,36.8,29.78,WSW,247,0.0,1.6,44,0.00,,,0.00,WUHU21623XXSP,2013-04-11 18:50:00,
2013-04-11 14:55:00,58.8,36.8,29.77,NNW,337,0.0,4.3,44,0.00,,,0.00,WUHU21623XXSP,2013-04-11 18:55:00,
2013-04-11 15:00:00,58.8,36.3,29.77,WNW,292,0.0,5.6,43,0.00,,,0.00,WUHU21623XXSP,2013-04-11 19:00:00,
2013-04-11 15:05:00,58.6,35.5,29.78,NNE,22,0.0,5.6,42,0.00,,,0.00,WUHU21623XXSP,2013-04-11 19:05:00,
2013-04-11 15:10:00,57.7,35.3,29.78,NNE,22,0.0,2.2,43,0.00,,,0.00,WUHU21623XXSP,2013-04-11 19:10:00,
2013-04-11 15:15:00,57.0,34.6,29.78,NNE,22,0.0,2.0,43,0.00,,,0.00,WUHU21623XXSP,2013-04-11 19:15:00,
2013-04-11 15:20:00,56.8,34.5,29.78,NNE,22,0.0,0.0,43,0.00,,,0.00,WUHU21623XXSP,2013-04-11 19:20:00,
2013-04-11 15:25:00,56.5,34.7,29.78,NNW,337,1.3,3.4,44,0.00,,,0.00,WUHU21623XXSP,2013-04-11 19:25:00,
2013-04-11 15:30:00,56.3,34.0,29.77,NNW,337,0.0,3.4,43,0.00,,,0.00,WUHU21623XXSP,2013-04-11 19:30:00,
2013-04-11 15:35:00,56.3,34.0,29.78,North,0,1.1,6.5,43,0.00,,,0.00,WUHU21623XXSP,2013-04-11 19:35:00,
2013-04-11 15:40:00,55.6,32.7,29.78,NNW,337,4.9,6.5,42,0.00,,,0.00,WUHU21623XXSP,2013-04-11 19:40:00,
2013-04-11 15:45:00,55.2,32.4,29.78,North,0,0.0,4.9,42,0.00,,,0.00,WUHU21623XXSP,2013-04-11 19:45:00,
2013-04-11 15:50:00,55.0,32.3,29.78,NNE,22,0.0,1.8,42,0.00,,,0.00,WUHU21623XXSP,2013-04-11 19:50:00,
2013-04-11 15:55:00,54.7,31.9,29.78,ENE,67,0.0,1.8,42,0.00,,,0.00,WUHU21623XXSP,2013-04-11 19:55:00,
2013-04-11 16:00:00,54.7,31.9,29.78,ENE,67,0.0,0.0,42,0.00,,,0.00,WUHU21623XXSP,2013-04-11 20:00:00,
2013-04-11 16:05:00,54.7,31.9,29.78,ENE,67,0.0,0.0,42,0.00,,,0.00,WUHU21623XXSP,2013-04-11 20:05:00,
2013-04-11 16:10:00,54.0,30.7,29.78,NNE,22,0.0,3.4,41,0.00,,,0.00,WUHU21623XXSP,2013-04-11 20:10:00,
2013-04-11 16:15:00,53.8,31.1,29.78,NE,45,0.0,3.4,42,0.00,,,0.00,WUHU21623XXSP,2013-04-11 20:15:00,
2013-04-11 16:20:00,53.4,30.8,29.78,NNE,22,0.0,0.0,42,0.00,,,0.00,WUHU21623XXSP,2013-04-11 20:20:00,
2013-04-11 16:25:00,53.2,30.6,29.78,NNE,22,0.0,1.6,41,0.00,,,0.00,WUHU21623XXSP,2013-04-11 20:25:00,
2013-04-11 16:30:00,53.1,29.9,29.78,NNE,22,4.0,4.0,41,0.00,,,0.00,WUHU21623XXSP,2013-04-11 20:30:00,
2013-04-11 16:35:00,52.9,30.1,29.79,NNE,22,0.9,4.0,41,0.00,,,0.00,WUHU21623XXSP,2013-04-11 20:35:00,
2013-04-11 16:40:00,52.7,29.6,29.78,NNE,22,0.0,0.9,42,0.00,,,0.00,WUHU21623XXSP,2013-04-11 20:40:00,
2013-04-11 16:45:00,52.7,30.1,29.79,NNE,22,0.0,0.9,42,0.00,,,0.00,WUHU21623XXSP,2013-04-11 20:45:00,
2013-04-11 16:50:00,52.5,30.0,29.79,NNE,22,3.4,3.4,42,0.00,,,0.00,WUHU21623XXSP,2013-04-11 20:50:00,
2013-04-11 16:55:00,52.2,29.8,29.79,North,0,0.0,3.4,42,0.00,,,0.00,WUHU21623XXSP,2013-04-11 20:55:00,
2013-04-11 17:00:00,52.0,29.5,29.79,NE,45,0.0,0.0,42,0.00,,,0.00,WUHU21623XXSP,2013-04-11 21:00:00,
2013-04-11 17:05:00,51.6,29.2,29.79,North,0,4.7,4.7,42,0.00,,,0.00,WUHU21623XXSP,2013-04-11 21:05:00,
2013-04-11 17:10:00,51.1,29.2,29.79,NNE,22,0.0,4.7,43,0.00,,,0.00,WUHU21623XXSP,2013-04-11 21:10:00,
2013-04-11 17:15:00,50.9,29.2,29.79,NNE,22,2.2,2.2,43,0.00,,,0.00,WUHU21623XXSP,2013-04-11 21:15:00,
2013-04-11 17:20:00,50.7,29.1,29.79,NNW,337,5.4,5.4,44,0.00,,,0.00,WUHU21623XXSP,2013-04-11 21:20:00,
2013-04-11 17:26:00,50.7,30.0,29.79,West,270,0.0,5.4,45,0.00,,,0.00,WUHU21623XXSP,2013-04-11 21:26:00,
2013-04-11 17:31:00,50.9,30.2,29.79,NNW,337,3.4,3.4,45,0.00,,,0.00,WUHU21623XXSP,2013-04-11 21:31:00,
2013-04-11 17:36:00,50.7,30.0,29.81,North,0,0.0,3.4,45,0.00,,,0.00,WUHU21623XXSP,2013-04-11 21:36:00,
2013-04-11 17:42:00,50.7,30.0,29.81,North,0,0.0,3.4,45,0.00,,,0.00,WUHU21623XXSP,2013-04-11 21:42:00,
2013-04-11 17:47:00,50.7,30.6,29.81,North,0,1.8,1.8,46,0.00,,,0.00,WUHU21623XXSP,2013-04-11 21:47:00,
2013-04-11 17:52:00,50.7,30.6,29.81,West,270,0.0,1.8,46,0.00,,,0.00,WUHU21623XXSP,2013-04-11 21:52:00,
2013-04-11 17:57:00,50.7,30.6,29.81,WSW,247,4.7,4.7,46,0.00,,,0.00,WUHU21623XXSP,2013-04-11 21:57:00,
2013-04-11 18:02:00,50.5,31.0,29.82,ESE,112,0.0,4.7,47,0.00,,,0.00,WUHU21623XXSP,2013-04-11 22:02:00,
2013-04-11 18:07:00,50.2,30.7,29.82,East,90,0.7,0.7,47,0.00,,,0.00,WUHU21623XXSP,2013-04-11 22:07:00,
2013-04-11 18:12:00,50.2,30.7,29.82,East,90,0.0,0.7,47,0.00,,,0.00,WUHU21623XXSP,2013-04-11 22:12:00,
2013-04-11 18:17:00,49.8,30.3,29.82,East,90,0.0,0.0,47,0.00,,,0.00,WUHU21623XXSP,2013-04-11 22:17:00,
2013-04-11 18:22:00,49.8,30.3,29.82,East,90,0.0,0.0,47,0.00,,,0.00,WUHU21623XXSP,2013-04-11 22:22:00,
2013-04-11 18:27:00,49.6,30.3,29.82,East,90,0.0,0.0,47,0.00,,,0.00,WUHU21623XXSP,2013-04-11 22:27:00,
2013-04-11 18:32:00,49.6,30.7,29.83,NE,45,0.0,0.0,48,0.00,,,0.00,WUHU21623XXSP,2013-04-11 22:32:00,
2013-04-11 18:37:00,49.3,30.3,29.83,NNE,22,0.0,0.7,48,0.00,,,0.00,WUHU21623XXSP,2013-04-11 22:37:00,
2013-04-11 18:42:00,49.3,30.3,29.83,NNE,22,0.0,0.7,48,0.00,,,0.00,WUHU21623XXSP,2013-04-11 22:42:00,
2013-04-11 18:47:00,49.1,30.2,29.84,NNE,22,0.0,0.0,48,0.00,,,0.00,WUHU21623XXSP,2013-04-11 22:47:00,
2013-04-11 18:52:00,49.1,30.2,29.84,NNE,22,0.0,1.6,48,0.00,,,0.00,WUHU21623XXSP,2013-04-11 22:52:00,
2013-04-11 18:57:00,48.7,29.3,29.84,NNE,22,2.7,2.7,47,0.00,,,0.00,WUHU21623XXSP,2013-04-11 22:57:00,
2013-04-11 19:02:00,48.6,29.3,29.83,NNE,22,0.0,2.7,48,0.00,,,0.00,WUHU21623XXSP,2013-04-11 23:02:00,
2013-04-11 19:07:00,48.4,28.9,29.84,NNE,22,0.0,0.0,47,0.00,,,0.00,WUHU21623XXSP,2013-04-11 23:07:00,
2013-04-11 19:12:00,48.0,28.6,29.84,NNE,22,0.0,0.0,47,0.00,,,0.00,WUHU21623XXSP,2013-04-11 23:12:00,
2013-04-11 19:17:00,48.0,28.6,29.83,NNE,22,0.0,3.4,47,0.00,,,0.00,WUHU21623XXSP,2013-04-11 23:17:00,
2013-04-11 19:22:00,47.8,28.4,29.84,NNE,22,0.0,3.4,47,0.00,,,0.00,WUHU21623XXSP,2013-04-11 23:22:00,
2013-04-11 19:27:00,47.7,28.8,29.84,NNE,22,0.0,0.0,48,0.00,,,0.00,WUHU21623XXSP,2013-04-11 23:27:00,
2013-04-11 19:32:00,47.5,28.8,29.83,NNE,22,0.0,0.0,48,0.00,,,0.00,WUHU21623XXSP,2013-04-11 23:32:00,
2013-04-11 19:38:00,47.3,28.5,29.84,NNE,22,0.0,0.0,48,0.00,,,0.00,WUHU21623XXSP,2013-04-11 23:38:00,
2013-04-11 19:43:00,47.1,28.9,29.84,NNE,22,2.0,6.7,49,0.00,,,0.00,WUHU21623XXSP,2013-04-11 23:43:00,
2013-04-11 19:48:00,46.8,28.0,29.84,NE,45,0.0,6.7,48,0.00,,,0.00,WUHU21623XXSP,2013-04-11 23:48:00,
2013-04-11 19:53:00,46.2,28.1,29.84,NE,45,0.0,1.8,49,0.00,,,0.00,WUHU21623XXSP,2013-04-11 23:53:00,
2013-04-11 19:58:00,46.2,28.1,29.84,NE,45,0.0,0.2,49,0.00,,,0.00,WUHU21623XXSP,2013-04-11 23:58:00,
2013-04-11 20:03:00,46.0,27.9,29.84,NNE,22,2.7,2.7,49,0.00,,,0.00,WUHU21623XXSP,2013-04-12 00:03:00,
2013-04-11 20:08:00,45.7,27.0,29.85,NNE,22,1.3,3.8,48,0.00,,,0.00,WUHU21623XXSP,2013-04-12 00:08:00,
2013-04-11 20:13:00,45.5,26.3,29.84,North,0,0.7,3.8,47,0.00,,,0.00,WUHU21623XXSP,2013-04-12 00:13:00,
2013-04-11 20:18:00,45.3,26.2,29.84,North,0,0.0,0.7,47,0.00,,,0.00,WUHU21623XXSP,2013-04-12 00:18:00,
2013-04-11 20:23:00,45.1,26.0,29.85,North,0,0.0,2.5,47,0.00,,,0.00,WUHU21623XXSP,2013-04-12 00:23:00,
2013-04-11 20:28:00,45.1,26.0,29.85,NNE,22,0.0,2.5,47,0.00,,,0.00,WUHU21623XXSP,2013-04-12 00:28:00,
2013-04-11 20:33:00,45.0,26.4,29.85,NNE,22,0.0,1.8,48,0.00,,,0.00,WUHU21623XXSP,2013-04-12 00:33:00,
2013-04-11 20:38:00,44.8,26.2,29.86,NNE,22,0.0,0.9,48,0.00,,,0.00,WUHU21623XXSP,2013-04-12 00:38:00,
2013-04-11 20:43:00,44.8,26.2,29.86,NNE,22,0.0,0.9,48,0.00,,,0.00,WUHU21623XXSP,2013-04-12 00:43:00,
2013-04-11 20:48:00,44.8,26.2,29.86,NNE,22,0.9,0.9,48,0.00,,,0.00,WUHU21623XXSP,2013-04-12 00:48:00,
2013-04-11 20:53:00,44.4,25.9,29.87,NNE,22,0.0,0.9,48,0.00,,,0.00,WUHU21623XXSP,2013-04-12 00:53:00,
2013-04-11 20:58:00,44.4,26.4,29.87,NNE,22,0.0,0.9,49,0.00,,,0.00,WUHU21623XXSP,2013-04-12 00:58:00,
2013-04-11 21:03:00,44.2,26.3,29.87,NNE,22,0.0,0.0,49,0.00,,,0.00,WUHU21623XXSP,2013-04-12 01:03:00,
2013-04-11 21:08:00,44.1,26.1,29.86,NNE,22,0.0,1.6,49,0.00,,,0.00,WUHU21623XXSP,2013-04-12 01:08:00,
2013-04-11 21:13:00,43.9,26.0,29.86,NNE,22,0.0,1.6,49,0.00,,,0.00,WUHU21623XXSP,2013-04-12 01:13:00,
2013-04-11 21:18:00,43.9,26.0,29.87,NNE,22,0.0,1.3,49,0.00,,,0.00,WUHU21623XXSP,2013-04-12 01:18:00,
2013-04-11 21:23:00,43.9,26.5,29.89,NNE,22,0.0,0.0,50,0.00,,,0.00,WUHU21623XXSP,2013-04-12 01:23:00,
2013-04-11 21:28:00,43.7,26.3,29.89,NNE,22,0.0,0.0,50,0.00,,,0.00,WUHU21623XXSP,2013-04-12 01:28:00,
2013-04-11 21:33:00,43.7,26.3,29.89,NNE,22,0.9,0.9,50,0.00,,,0.00,WUHU21623XXSP,2013-04-12 01:33:00,
2013-04-11 21:38:00,43.5,26.6,29.89,NNE,22,0.0,0.9,51,0.00,,,0.00,WUHU21623XXSP,2013-04-12 01:38:00,
2013-04-11 21:43:00,43.3,26.9,29.89,NNE,22,0.0,0.0,52,0.00,,,0.00,WUHU21623XXSP,2013-04-12 01:43:00,
2013-04-11 21:48:00,43.2,27.1,29.89,NNE,22,0.0,0.0,53,0.00,,,0.00,WUHU21623XXSP,2013-04-12 01:48:00,
2013-04-11 21:53:00,43.0,27.4,29.88,NNE,22,0.0,0.0,54,0.00,,,0.00,WUHU21623XXSP,2013-04-12 01:53:00,
2013-04-11 21:58:00,43.0,28.3,29.89,NNE,22,0.0,0.0,56,0.00,,,0.00,WUHU21623XXSP,2013-04-12 01:58:00,
2013-04-11 22:03:00,42.6,28.4,29.89,NNE,22,0.0,0.0,57,0.00,,,0.00,WUHU21623XXSP,2013-04-12 02:03:00,
2013-04-11 22:08:00,42.6,28.8,29.90,NNE,22,0.0,0.0,58,0.00,,,0.00,WUHU21623XXSP,2013-04-12 02:08:00,
2013-04-11 22:13:00,42.4,28.6,29.90,NNE,22,0.0,0.0,58,0.00,,,0.00,WUHU21623XXSP,2013-04-12 02:13:00,
2013-04-11 22:18:00,42.4,28.6,29.90,NNE,22,0.0,0.0,58,0.00,,,0.00,WUHU21623XXSP,2013-04-12 02:18:00,
2013-04-11 22:23:00,42.1,28.7,29.90,NNE,22,0.0,0.0,59,0.00,,,0.00,WUHU21623XXSP,2013-04-12 02:23:00,
2013-04-11 22:28:00,42.1,29.2,29.90,NNE,22,0.0,0.0,60,0.00,,,0.00,WUHU21623XXSP,2013-04-12 02:28:00,
2013-04-11 22:33:00,42.1,29.2,29.90,NNE,22,0.0,0.0,60,0.00,,,0.00,WUHU21623XXSP,2013-04-12 02:33:00,
2013-04-11 22:38:00,42.1,29.6,29.90,NNE,22,0.0,0.0,61,0.00,,,0.00,WUHU21623XXSP,2013-04-12 02:38:00,
2013-04-11 22:43:00,41.9,29.8,29.90,NNE,22,0.0,0.0,62,0.00,,,0.00,WUHU21623XXSP,2013-04-12 02:43:00,
2013-04-11 22:48:00,41.7,29.6,29.89,NNE,22,0.0,0.0,62,0.00,,,0.00,WUHU21623XXSP,2013-04-12 02:48:00,
2013-04-11 22:53:00,41.7,30.0,29.90,NNE,22,0.0,0.0,63,0.00,,,0.00,WUHU21623XXSP,2013-04-12 02:53:00,
2013-04-11 22:58:00,41.5,29.8,29.90,NNE,22,0.0,0.0,63,0.00,,,0.00,WUHU21623XXSP,2013-04-12 02:58:00,
2013-04-11 23:03:00,41.5,30.2,29.89,NNE,22,0.0,0.0,64,0.00,,,0.00,WUHU21623XXSP,2013-04-12 03:03:00,
2013-04-11 23:08:00,41.4,30.5,29.89,NNE,22,0.0,0.0,65,0.00,,,0.00,WUHU21623XXSP,2013-04-12 03:08:00,
2013-04-11 23:13:00,41.4,30.5,29.90,NNE,22,0.0,0.0,65,0.00,,,0.00,WUHU21623XXSP,2013-04-12 03:13:00,
2013-04-11 23:18:00,41.4,30.5,29.90,NNE,22,0.0,0.0,65,0.00,,,0.00,WUHU21623XXSP,2013-04-12 03:18:00,
2013-04-11 23:23:00,41.4,30.5,29.89,NNE,22,0.0,0.0,65,0.00,,,0.00,WUHU21623XXSP,2013-04-12 03:23:00,
2013-04-11 23:28:00,41.4,30.5,29.89,NNE,22,0.0,0.0,65,0.00,,,0.00,WUHU21623XXSP,2013-04-12 03:28:00,
2013-04-11 23:33:00,41.4,30.5,29.90,NNE,22,0.0,0.0,65,0.00,,,0.00,WUHU21623XXSP,2013-04-12 03:33:00,
2013-04-11 23:38:00,41.4,30.3,29.90,NNE,22,0.0,0.0,65,0.00,,,0.00,WUHU21623XXSP,2013-04-12 03:38:00,
2013-04-11 23:43:00,41.2,30.3,29.91,NNE,22,0.0,0.0,65,0.00,,,0.00,WUHU21623XXSP,2013-04-12 03:43:00,
2013-04-11 23:48:00,41.4,30.5,29.91,NNE,22,0.0,0.0,65,0.00,,,0.00,WUHU21623XXSP,2013-04-12 03:48:00,
2013-04-11 23:53:00,41.2,30.3,29.91,NNE,22,0.0,0.0,65,0.00,,,0.00,WUHU21623XXSP,2013-04-12 03:53:00,
2013-04-11 23:58:00,41.2,30.3,29.90,NNE,22,0.0,0.0,65,0.00,,,0.00,WUHU21623XXSP,2013-04-12 03:58:00,